Regional Weather Roundup
Issued by NWS

Home | Current Version | Previous Version | Graphics & Text | Print | Product List | Glossary On
Versions: 1 2 3 4 5 6 7 8 9 10 11 12 13 14 15 16 17 18 19 20 21 22 23 24 25 26 27 28 29 30 31 32 33 34 35 36 37 38 39 40 41 42 43 44 45 46 47 48 49 50
893
ASUS43 KDMX 202201
RWRIA

WEATHER ROUNDUP FOR IOWA
NATIONAL WEATHER SERVICE DES MOINES IA
500 PM CDT FRI APR 20 2018

NOTE: "FAIR" INDICATES FEW OR NO CLOUDS BELOW 12,000 FEET WITH NO
SIGNIFICANT WEATHER AND/OR OBSTRUCTIONS TO VISIBILITY.

* - THESE STATIONS ARE NOT NWS STATIONS...THUS NOT UNDER NWS
QUALITY CONTROL.  THEY ALSO DO NOT REPORT WEATHER SUCH
AS PRECIPITATION OR FOG.

IAZ001>003-012>014-020>022-031>034-043>046-202300-
   NORTHWEST IOWA

CITY           SKY/WX    TMP DP  RH WIND       PRES   REMARKS
CARROLL *      CLOUDY    59  30  33 E15       30.33S
CHEROKEE *     CLOUDY    45  37  75 E13       30.35S
DENISON *      CLOUDY    59  28  31 SE10      30.32S
LE MARS *      CLOUDY    54  41  62 NE16      30.33R
ORANGE CITY *  MOSUNNY   48  41  76 E9G17     30.35R
SHELDON *      CLOUDY    46  41  81 E12       30.35R
SIOUX CITY     CLOUDY    58  30  34 SE8       30.31R
SPENCER        CLOUDY    41  32  70 E12       30.38F
STORM LAKE *   CLOUDY    45  39  81 NE10      30.35S
$$

IAZ055>058-069>071-079>083-090>094-202300-
   SOUTHWEST IOWA

CITY           SKY/WX    TMP DP  RH WIND       PRES   REMARKS
ATLANTIC *     MOSUNNY   59  27  29 SE9G16    30.30S
AUDUBON *      PTSUNNY   59  25  27 SE9G18    30.32S
CLARINDA *     MOSUNNY   63  27  25 SE12      30.31F
COUNCIL BLFS * CLOUDY    59  28  31 E13       30.27F
CRESTON *      MOSUNNY   59  25  27 SE14G20   30.32S
HARLAN  *      MOSUNNY   59  27  29 SE12G17   30.33S
LAMONI         SUNNY     61  27  27 SE12      30.30F
RED OAK *      MOSUNNY   61  27  27 SE9G17    30.29F
SHENANDOAH *   CLOUDY    61  28  29 SE13      30.28S
$$

IAZ047>049-059>061-072>074-084-202300-
   CENTRAL IOWA

CITY           SKY/WX    TMP DP  RH WIND       PRES   REMARKS
AMES           CLOUDY    57  29  34 SE13      30.35F
ANKENY *       CLOUDY    57  27  30 E7G15     30.35F
BOONE *        CLOUDY    55  28  35 SE7G17    30.34F
CHARITON *     MOSUNNY   59  28  31 SE12      30.32F
DES MOINES     CLOUDY    59  27  29 E9        30.34F
GRINNELL*      CLOUDY    57  25  28 SE8       30.37F
KNOXVILLE *    CLOUDY    59  23  25 SE10G17   30.33F
MARSHALLTOWN   PTSUNNY   56  30  37 E9        30.36F
NEWTON *       CLOUDY    59  25  27 SE10      30.36F
PELLA *        PTSUNNY   59  22  24 SE9       30.36F
$$

IAZ004>006-015-016-023>025-035-036-202300-
   NORTH CENTRAL IOWA

CITY           SKY/WX    TMP DP  RH WIND       PRES   REMARKS
ALGONA *       CLOUDY    41  32  70 E6        30.40S
CLARION *      CLOUDY    48  39  71 NE13      30.38F
ESTHERVILLE    CLOUDY    36  30  79 E6        30.40S WCI  31
FORT DODGE *   CLOUDY    55  34  45 E8        30.37F
MASON CITY     CLOUDY    41  32  70 NE9       30.42F
FOREST CITY *  FAIR      43  32  65 E6        30.41F
IOWA FALLS *   FAIR      56  31  37 SE7       30.38F
$$

IAZ007>011-017>019-026>030-037>042-050>054-066-202300-
   NORTHEAST IOWA

CITY           SKY/WX    TMP DP  RH WIND       PRES   REMARKS
CEDAR RAPIDS   FAIR      59  21  23 S8        30.37F
CHARLES CITY * FAIR      48  32  53 NE8       30.42S
CLINTON *      FAIR      61  16  17 VRB5      30.41F
DECORAH *      FAIR      50  28  43 CALM      30.41F
DUBUQUE        FAIR      57  23  26 VRB3      30.40F
MONTICELLO *   FAIR      59  23  25 VRB6      30.39F
OELWEIN *      FAIR      55  28  35 SE5       30.40S
WATERLOO       FAIR      56  28  34 SE6       30.38F
$$

IAZ064-065-067-068-078-202300-
   EAST CENTRAL IOWA

CITY           SKY/WX    TMP DP  RH WIND       PRES   REMARKS
DAVENPORT      FAIR      60  11  14 SE10      30.41F
IOWA CITY      FAIR      59  22  24 SE8       30.39F
MUSCATINE *    FAIR      61  14  16 SE7       30.39F
QUAD CITIES    FAIR      63  17  17 E10       30.39F
$$

IAZ062-063-075>077-085>089-095>099-202300-
   SOUTHEAST IOWA

CITY           SKY/WX    TMP DP  RH WIND       PRES   REMARKS
BURLINGTON     CLOUDY    60  19  20 E12       30.38F
FAIRFIELD *    CLOUDY    59  18  20 SE9       30.36F
FORT MADISON * CLOUDY    61  25  25 SE8G17    30.38F
KEOKUK *       CLOUDY    61  19  20 SE12      30.37F
OSKALOOSA *    FAIR      59  20  22 SE13      30.36F
CENTERVILLE *    N/A     59  25  27 E14       30.34F
OTTUMWA        CLOUDY    59  23  25 E9        30.35F
WASHINGTON *   MOSUNNY   61  16  17 SE7G15    30.38F
$$

ABBREVIATIONS USED IN REMARKS
   TC - TEMPERATURES IN CELSIUS
  WCI - WIND CHILL INDEX
   HX - HEAT INDEX
  VSB - VISIBILITY
$$





USA.gov is the U.S. government's official web portal to all federal, state and local government web resources and services.